Regional Weather Roundup
Issued by NWS New Orleans/Baton Rouge, LA

Home | Current Version | Previous Version | Text Only | Print | Product List | Glossary On
Versions: 1 2 3 4 5 6 7 8 9 10 11 12 13 14 15 16 17 18 19 20 21 22 23 24 25 26 27
000
ASUS44 KLIX 271013
RWRLIX
NEW ORLEANS REGIONAL WEATHER ROUNDUP
NATIONAL WEATHER SERVICE NEW ORLEANS LA
400 AM CST MON FEB 27 2017

NOTE: "FAIR" INDICATES FEW OR NO CLOUDS BELOW 12,000 FEET WITH NO
      SIGNIFICANT WEATHER AND/OR OBSTRUCTIONS TO VISIBILITY.
      SKY/WX - SKY CONDITION AND SIGNIFICANT WEATHER.
      TMP - AIR TEMPERATURE.     DP    - DEWPOINT TEMPERATURE.
      RH  - RELATIVE HUMIDITY.   PRES  - PRESSURE.
      HI  - HEAT INDEX.          WCI   - WIND CHILL INDEX.

*  THESE STATIONS ARE NOT NWS OR FAA STATIONS AND ARE NOT UNDER
   NWS QUALITY CONTROL.

LAZ038-040-048-061>063-065>067-069-271100-
SOUTHEAST LOUISIANA

CITY           SKY/WX    TMP DP  RH WIND       PRES   REMARKS
N.O. AUDUBON   NOT AVBL
N.O. INTL ARPT CLOUDY    66  62  87 SE9       30.04S
N.O. LAKEFRONT CLOUDY    68  63  84 SE14      30.04F
N.O. DOWNTOWN*   N/A     67  62  84 VRB5      30.05S
RESERVE*       CLOUDY    67  65  91 SE6       30.03F
SLIDELL        CLOUDY    66  61  84 SE8       30.05F
BATON ROUGE    CLOUDY    63  60  90 E5        30.01S
BOOTHVILLE     CLEAR     66  63  90 SE12      30.06S
BELLE CHASSE   MOCLDY    66  62  87 SE10      30.04S
BOGALUSA*      PTSUNNY   62  57  83 SE3       30.06F
GALLIANO*      MOSUNNY   69  63  81 SE9G18    30.03S
NEW ROADS*     CLOUDY    61  58  88 E3        30.02S
GONZALES*      RAIN      65  64  93 SE10      30.00F
HAMMOND*       CLOUDY    63  59  88 SE8       30.02F
HOUMA*         CLOUDY    69  65  89 SE9       30.03S
PORT FOURCHON* NOT AVBL

$$

MSZ070-080>082-271100-
SOUTHERN MISSISSIPPI

CITY           SKY/WX    TMP DP  RH WIND       PRES   REMARKS
MCCOMB         CLOUDY    60  55  83 SE8G17    30.04S
GULFPORT       PTCLDY    65  60  84 SE9       30.07F
BILOXI         PTCLDY    66  59  78 SE8       30.07S
PASCAGOULA     CLEAR     53  50  89 SE3       30.08F

$$

COASTAL OBSERVATIONS
LAKE AND NEARSHORE STATIONS

STATION/POSITION TIME  TEMP    WIND        PRES    WAVE
                       AIR SEA DIR/SP/G            HT/PER
                 (UTC) (F)     (DEG/KT/KT) (MB)    (FT/S)
PASCAGOULA       0948   66     130/  7/ 10 1018.3
WAVELAND YACHT   0948   66 63  140/  7/  8 1018.0
GRAND ISLE       0948   69 68  160/  9/ 14 1017.2
SOUTHWEST PASS   0948          140/  7/ 16   N/A
NEW CANAL        0948   68 64  140/  5/ 11 1016.3
SHELL BEACH      0948   67 66  140/ 13/ 17 1017.4

OFFSHORE STATIONS

STATION/POSITION TIME  TEMP    WIND        PRES    WAVE
                       AIR SEA DIR/SP/G            HT/PER
                 (UTC) (F)     (DEG/KT/KT) (MB)    (FT/S)

$$





USA.gov is the U.S. government's official web portal to all federal, state and local government web resources and services.